Location: ??
(34.9249°N, 128.2761°E)
Time: 04:55:19
(UTC+00:00)

Daily predictions for brighter satellites

Satellite Brightness Start Highest point End
(mag) Time Altitude Azimuth Time Altitude Azimuth Time Altitude Azimuth
BREEZE-M DEB (TANK) 4.4 08:48:13 10° WNW 08:51:27 45° SW 09:01:06 10° SE
CZ-4B R/B 3.3 08:51:27 10° SSE 08:57:05 85° ENE 09:02:40 10° NNW
SKYMED 2 4.3 08:55:09 10° NNE 08:59:06 33° E 09:03:00 10° SSE
Atlas Centaur 2 3.9 08:52:05 10° SW 08:59:38 40° SSE 09:07:23 10° E
ASTRO E2 4.3 08:58:01 10° SW 09:01:15 24° SSE 09:04:28 10° ESE
Cosmos 44 3.1 08:57:42 10° SSW 09:02:05 89° ESE 09:06:44 10° NNE
Cosmos 1741 Rocket 4.0 08:56:53 10° NNW 09:02:08 76° ENE 09:07:20 10° SSE
SAR-Lupe-4 3.8 08:58:52 10° NNE 09:02:22 47° E 09:05:48 10° S
Cosmos 1939 Rocket 3.9 09:01:01 10° SE 09:04:16 24° ENE 09:07:30 10° NNE
Helios 1A Rocket 4.4 09:02:04 10° ESE 09:04:49 17° ENE 09:07:33 10° NNE
OAO 3 Rocket 3.2 09:00:01 10° W 09:04:50 89° S 09:09:36 10° E
Milstar 3 3.5 09:01:19 10° WSW 09:08:28 45° S 09:14:51 10° E
Cosmos 1656 4.2 09:05:58 10° S 09:11:00 38° ESE 09:16:08 10° NE
USA 276 4.1 09:08:40 10° WNW 09:11:30 31° SW 09:14:22 10° SSE
Cosmos 1689 Rocket 2.6 09:09:27 10° NNE 09:12:08 35° E 09:14:48 10° SSE
Cosmos 1328 4.0 09:09:38 10° N 09:13:35 78° W 09:17:31 10° S
Cosmos 1455 4.1 09:14:14 10° E 09:14:55 10° E 09:15:05 10° E
Cosmos 2227 Rocket 3.6 09:13:21 10° NNE 09:17:04 18° NE 09:20:47 10° E
Cosmos 2058 Rocket 3.5 09:12:55 10° SSE 09:17:06 42° E 09:21:21 10° NNE
Cosmos 1850 Rocket 4.4 09:12:54 10° NNW 09:18:12 72° WSW 09:23:30 10° S
SAR-Lupe-1 4.0 09:16:23 10° NNE 09:19:58 79° E 09:23:34 10° S
Cosmos 1953 Rocket 3.8 09:17:37 10° N 09:21:55 49° E 09:26:13 10° SSE
COSMOS 2487 3.2 09:19:56 10° NNW 09:23:18 54° WSW 09:26:39 10° S
PSLV R/B 4.1 09:19:31 10° NNE 09:23:36 52° E 09:27:37 10° S
CZ-4 R/B 2.4 09:22:25 10° ESE 09:25:30 22° ENE 09:28:33 10° NNE
Cosmos 292 Rocket 4.2 09:24:17 10° SSW 09:29:00 65° WNW 09:33:48 10° N
Cosmos 1400 Rocket 2.9 09:24:58 10° S 09:29:00 59° E 09:33:03 10° NNE
Cosmos 1697 Rocket 3.5 09:25:10 10° SSE 09:29:50 28° ESE 09:34:32 10° NE
Meteor 2-8 Rocket 4.5 09:24:26 10° S 09:30:23 59° E 09:36:23 10° NNE
H-2A R/B 3.4 09:27:42 10° ESE 09:31:33 20° ENE 09:35:26 10° NNE
Cosmos 1553 Rocket 4.2 09:26:45 10° SSE 09:32:52 51° E 09:38:55 10° NNE
NOSS 3-3 (A) 4.3 09:28:28 10° S 09:33:37 39° ESE 09:39:14 10° NE
NOSS 3-3 (C) 4.3 09:28:32 10° S 09:33:44 39° ESE 09:39:22 10° NE
Meteor 2-21 Rocket 4.4 09:28:40 10° N 09:34:52 84° E 09:40:58 10° S
BREEZE-M TANK 4.4 09:27:45 10° WNW 09:35:20 29° NNW 09:38:14 13° NE
NOAA 11 4.3 09:32:21 10° S 09:37:48 80° WSW 09:43:16 10° NNW
IRS-1C Rocket 4.0 09:40:15 10° SSE 09:45:30 79° ENE 09:50:47 10° N
COSMO-SKYMED 1 3.0 09:42:52 10° N 09:47:11 64° WNW 09:51:27 10° SSW
Geosat 3.9 09:44:32 10° NNE 09:49:33 68° ESE 09:54:32 10° SSW
Okean O Rocket 4.1 09:46:08 10° SSW 09:49:45 25° W 09:53:22 10° NW
Cosmos 1980 Rocket 3.3 09:47:45 10° SSE 09:51:42 22° ESE 09:51:42 22° ESE
Cosmos 1892 3.1 09:51:25 10° N 09:55:04 39° E 09:57:35 17° SE
YAOGAN 1 2.7 09:52:53 10° SSE 09:57:01 48° ENE 10:01:11 10° N
Cosmos 2297 Rocket 2.4 09:52:09 10° N 09:57:37 46° ENE 10:01:45 17° SE
Cosmos 1315 Rocket 3.1 09:54:49 10° SSE 09:58:29 40° E 09:59:28 33° ENE
CZ-2D R/B 3.1 09:55:01 10° SSE 09:58:50 88° ENE 10:02:38 10° N
OAO 2 Rocket 3.3 09:54:26 10° WSW 09:59:23 71° SSE 10:01:32 33° E
Hubble Space Telescope 3.6 09:59:03 10° SSW 09:59:46 10° SSW 10:00:28 10° SSW
In-Cosmos 22 Rocket 4.0 09:55:33 10° N 10:00:54 68° E 10:06:22 10° SSE
Cosmos 1346 Rocket 4.1 09:59:50 10° NNE 10:01:49 24° NNE 10:01:49 24° NNE
SL-08 R/B 4.3 09:57:46 10° N 10:03:54 70° E 10:09:59 10° SSE
Cosmos 1812 Rocket 4.0 10:00:00 10° SSE 10:03:56 37° E 10:03:56 37° E
Meteor 2-15 4.3 09:58:44 10° S 10:04:51 74° E 10:10:59 10° N
Cosmos 1745 Rocket 4.1 09:58:57 10° N 10:05:03 50° E 10:11:10 10° SSE
Aureole 3 Rocket 4.0 10:05:05 10° SSW 10:08:25 43° WNW 10:12:45 10° N
SeaSat 1 3.9 10:10:13 21° NE 10:10:13 21° NE 10:12:52 10° N
Delta 2 Rocket 4.0 10:05:03 10° W 10:10:23 79° SSW 10:12:46 36° ESE
Cosmos 2278 4.0 10:13:11 10° S 10:18:26 41° ESE 10:18:26 41° ESE
Okean-O 2.9 10:16:19 10° S 10:20:42 67° WSW 10:25:06 10° NNW
Cosmos 1386 Rocket 4.4 10:15:09 10° N 10:21:30 65° E 10:27:45 10° SSE
Cosmos 2219 3.1 10:20:01 10° NNW 10:25:49 88° ENE 10:30:23 17° SSE
Cosmos 968 Rocket 3.3 10:22:52 10° NNW 10:28:04 66° ENE 10:28:52 57° ESE
CZ-2C R/B 3.4 10:23:41 10° S 10:29:30 81° WSW 10:35:16 10° NNW
CRYOSAT 2 4.2 10:24:54 10° N 10:29:46 89° W 10:34:38 10° S
Cosmos 1340 4.1 10:29:54 10° NNW 10:33:25 37° W 10:36:54 10° SSW
Cosmos 1709 Rocket 4.3 10:28:53 10° N 10:34:13 46° ENE 10:34:13 46° ENE
Cosmos 2082 4.4 10:30:03 10° N 10:34:09 37° NNE 10:34:09 37° NNE
SJ-11-01 4.1 10:38:30 70° S 10:39:03 88° WSW 10:43:44 10° NNW
Meteor 2-10 Rocket 4.2 10:34:20 10° SSW 10:39:37 54° W 10:44:44 10° N
ASTRO E2 3.9 10:37:30 10° WSW 10:40:14 36° SW 10:40:14 36° SW
Cosmos 2369 3.8 10:35:44 10° SSW 10:41:27 77° WNW 10:44:38 28° NNE
Cosmos 1486 Rocket 3.9 10:37:01 10° NNW 10:42:23 85° WSW 10:43:37 54° S
Cosmos 2315 Rocket 3.8 10:38:10 10° S 10:44:17 67° E 10:50:26 10° NNE
Cosmos 883 Rocket 4.3 10:38:28 10° S 10:44:38 84° E 10:50:48 10° N
MOS 1 Rocket 4.1 10:40:25 10° N 10:45:01 53° WNW 10:49:52 10° SSW
ARGOS 3.2 10:45:43 63° NNE 10:45:43 63° NNE 10:50:26 10° N
OAO 3 Rocket 3.8 10:43:38 10° W 10:47:55 47° SSW 10:47:55 47° SSW
Atlas Centaur 2 3.1 10:40:45 10° WSW 10:49:09 62° S 10:50:54 52° SE
Cosmos 1455 3.6 10:46:36 10° SSW 10:50:05 36° W 10:50:08 36° WNW
CZ-4 R/B 3.8 10:57:27 10° SW 11:00:25 20° W 11:03:21 10° NW
CSL-04 Rocket 4.2 10:56:03 14° S 11:00:48 59° WSW 11:06:17 10° NNW
Cosmos 2227 Rocket 2.6 10:55:57 10° NNW 11:01:31 60° WSW 11:02:42 49° SSW
GEOS 3 Rocket 4.1 11:04:07 55° NNW 11:04:07 55° NNW 11:08:17 10° NNW
H-2A R/B 3.1 11:06:51 18° SSW 11:10:32 46° W 11:15:46 10° NNW
Cosmos 1697 Rocket 4.2 11:08:35 10° SW 11:13:36 34° WNW 11:16:58 19° N
H-2A R/B (2) 3.7 10:11:52 10° WSW 11:17:00 65° S 11:18:37 57° SE
Cosmos 1980 Rocket 3.7 11:30:14 10° SW 11:33:35 31° WSW 11:33:35 31° WSW
Cosmos 2297 Rocket 4.4 11:37:12 10° NW 11:41:14 20° W 11:43:43 15° SW
Milstar 3 3.9 11:44:57 10° W 11:49:01 36° SW 11:49:01 36° SW
